Weather History for Rogers, AR

Change the Weather History Date:

Friday, September 20, 2013

  Actual Average Record
Temperature  
Mean Temperature 65 °F -  
Max Temperature 71 °F 75 °F 91 °F (2005)
Min Temperature 57 °F 55 °F 46 °F (2003)
Growing Degree Days 15 (Base 50)    
Moisture  
Dew Point 63 °F    
Average Humidity 88    
Maximum Humidity 96    
Minimum Humidity 61    
Precipitation  
Precipitation 1.85 in - - ()
Sea Level Pressure  
Sea Level Pressure 29.99 in    
Wind  
Wind Speed 6 mph (NNW)    
Max Wind Speed 14 mph    
Max Gust Speed 18 mph    
Visibility 8 miles    
Events Rain , Thunderstorm    
Averages and records for this station are not official NWS values.
T = Trace of Precipitation, MM = Missing Value Source: NWS Daily Summary

Daily Weather History Graph

Daily Weather History Graph

Search for Another Location

Airport:

Trip Planner

Search our weather history database for the weather conditions in past years. The results will help you decide how hot, cold, wet, or windy it might be!

Date:

Astronomy

Sep. 20, 2013 Rise Set
Actual Time 7:02 AM CDT 7:15 PM CDT
Civil Twilight 6:37 AM CDT 7:41 PM CDT
Nautical Twilight 6:07 AM CDT 8:11 PM CDT
Astronomical Twilight 5:36 AM CDT 8:42 PM CDT
Moon 7:54 PM CDT 8:14 AM CDT
Length of Visible Light 13h 04m
Length of Day
12h 12m
Full, 98% of the Moon is Illuminated
Sep 20
Full
Sep 26
Last Quarter
Oct 4
New
Oct 11
First Quarter
Oct 18
Full

Hourly Weather History & Observations

Time (CDT) Temp. Dew Point Humidity Pressure Visibility Wind Dir Wind Speed Gust Speed Precip Events Conditions
12:11 AM 71.6 °F 69.8 °F 94% 29.99 in 7.0 mi NW 10.4 mph - N/A Thunderstorm Mostly Cloudy
12:23 AM 71.6 °F 68.0 °F 88% 30.00 in 10.0 mi WNW 12.7 mph 17.3 mph N/A Thunderstorm Overcast
12:26 AM 71.6 °F 66.2 °F 83% 30.01 in 10.0 mi Variable 6.9 mph 17.3 mph N/A   Overcast
12:29 AM 71.6 °F 66.2 °F 83% 30.00 in 9.0 mi WNW 11.5 mph 18.4 mph 0.00 in Rain Light Rain
12:40 AM 69.8 °F 66.2 °F 88% 30.02 in 4.0 mi NNW 5.8 mph - 0.33 in Rain Heavy Rain
12:42 AM 69.8 °F 66.2 °F 88% 30.02 in 4.0 mi NNW 4.6 mph - 0.34 in Rain , Thunderstorm Rain
12:49 AM 69.8 °F 66.2 °F 88% 30.02 in 4.0 mi NW 11.5 mph - 0.45 in Rain , Thunderstorm Heavy Rain
12:57 AM 68.0 °F 66.2 °F 94% 30.02 in 3.0 mi West 6.9 mph - 0.71 in Rain , Thunderstorm Heavy Rain
12:59 AM 68.0 °F 66.0 °F 93% 29.98 in 3.0 mi West 9.2 mph - 0.78 in Rain , Thunderstorm Heavy Rain
1:04 AM 68.0 °F 66.2 °F 94% 30.02 in 3.0 mi WNW 10.4 mph - 0.12 in Rain , Thunderstorm Heavy Rain
1:26 AM 66.2 °F 64.4 °F 94% 30.01 in 7.0 mi Calm Calm - 0.34 in Rain , Thunderstorm Thunderstorms and Rain
1:57 AM 66.2 °F 64.4 °F 94% 30.02 in 2.5 mi Calm Calm - 0.54 in Rain Heavy Rain
1:59 AM 66.9 °F 64.9 °F 93% 29.98 in 2.5 mi ESE 3.5 mph - 0.55 in Rain Heavy Rain
2:05 AM 66.2 °F 64.4 °F 94% 30.03 in 4.0 mi SE 9.2 mph - 0.03 in Rain Heavy Rain
2:57 AM 66.9 °F 64.9 °F 93% 29.98 in 10.0 mi SSW 9.2 mph - 0.24 in Rain Rain
3:57 AM 66.2 °F 64.4 °F 94% 30.00 in 10.0 mi Calm Calm - 0.14 in Rain Light Rain
3:59 AM 66.0 °F 64.9 °F 96% 29.96 in 10.0 mi Calm Calm - 0.14 in Rain Light Rain
4:12 AM 66.2 °F 64.4 °F 94% 29.99 in 10.0 mi Calm Calm - 0.01 in Rain Light Rain
4:16 AM 66.2 °F 64.4 °F 94% 29.99 in 10.0 mi WSW 3.5 mph - 0.01 in Rain Light Rain
4:38 AM 66.2 °F 64.4 °F 94% 29.99 in 10.0 mi Calm Calm - 0.01 in Rain Light Rain
4:41 AM 66.2 °F 64.4 °F 94% 30.00 in 10.0 mi Calm Calm - 0.02 in Rain Light Rain
4:53 AM 66.2 °F 64.4 °F 94% 30.00 in 9.0 mi Calm Calm - 0.02 in Rain Light Rain
4:57 AM 66.0 °F 64.9 °F 96% 29.97 in 9.0 mi Calm Calm - 0.02 in Rain Light Rain
5:51 AM 66.2 °F 64.4 °F 94% 30.00 in 10.0 mi SSW 3.5 mph - 0.04 in Rain Rain
5:57 AM 66.9 °F 64.9 °F 93% 29.96 in 10.0 mi Calm Calm - 0.04 in Rain Rain
6:17 AM 66.2 °F 64.4 °F 94% 30.00 in 10.0 mi Calm Calm - N/A Rain Rain
6:26 AM 66.2 °F 64.4 °F 94% 30.00 in 9.0 mi Calm Calm - N/A Rain Light Rain
6:57 AM 66.0 °F 64.9 °F 96% 29.96 in 8.0 mi Calm Calm - N/A Rain Light Rain
7:05 AM 66.2 °F 64.4 °F 94% 30.00 in 8.0 mi Calm Calm - 0.01 in Rain Light Rain
7:57 AM 66.2 °F 64.4 °F 94% 30.00 in 9.0 mi Calm Calm - 0.05 in Rain Light Rain
7:59 AM 66.9 °F 64.9 °F 93% 29.96 in 10.0 mi Calm Calm - 0.05 in Rain Light Rain
8:10 AM 66.2 °F 64.4 °F 94% 30.00 in 7.0 mi South 3.5 mph - 0.00 in Rain Light Rain
8:31 AM 66.2 °F 64.4 °F 94% 30.00 in 10.0 mi South 4.6 mph - 0.01 in Rain Light Rain
8:52 AM 66.2 °F 64.4 °F 94% 30.00 in 8.0 mi Calm Calm - 0.02 in Rain Light Rain
8:57 AM 66.9 °F 64.9 °F 93% 29.96 in 10.0 mi Calm Calm - 0.02 in Rain Light Rain
9:13 AM 68.0 °F 66.2 °F 94% 30.00 in 10.0 mi West 5.8 mph - 0.00 in Rain Light Rain
9:57 AM 68.0 °F 66.0 °F 93% 29.97 in 10.0 mi West 4.6 mph - 0.00 in Rain Light Rain
10:57 AM 68.0 °F 64.9 °F 90% 29.98 in 10.0 mi NNW 8.1 mph - 0.01 in Rain Light Rain
11:05 AM 68.0 °F 66.2 °F 94% 30.01 in 10.0 mi North 5.8 mph - N/A   Overcast
11:21 AM 69.8 °F 66.2 °F 88% 30.01 in 10.0 mi NNW 6.9 mph - N/A   Overcast
11:25 AM 69.8 °F 66.2 °F 88% 30.01 in 10.0 mi North 4.6 mph - N/A   Overcast
11:35 AM 68.0 °F 66.2 °F 94% 30.00 in 10.0 mi NNW 9.2 mph - N/A   Overcast
11:57 AM 68.0 °F 64.9 °F 90% 29.98 in 8.0 mi NNW 8.1 mph - N/A   Overcast
12:57 PM 64.9 °F 63.0 °F 93% 30.00 in 3.0 mi NNW 9.2 mph - N/A   Overcast
1:34 PM 66.2 °F 62.6 °F 88% 30.01 in 10.0 mi North 10.4 mph - N/A   Overcast
1:57 PM 68.0 °F 60.8 °F 78% 29.99 in 10.0 mi NNE 13.8 mph 18.4 mph N/A   Mostly Cloudy
1:59 PM 68.0 °F 61.0 °F 78% 29.97 in 10.0 mi NNE 12.7 mph 18.4 mph N/A   Mostly Cloudy
2:54 PM 66.2 °F 60.8 °F 83% 29.98 in 10.0 mi Variable 6.9 mph - N/A   Mostly Cloudy
2:57 PM 68.0 °F 60.8 °F 78% 29.98 in 10.0 mi North 9.2 mph - N/A   Mostly Cloudy
2:59 PM 68.0 °F 61.0 °F 78% 29.95 in 10.0 mi North 9.2 mph - N/A   Mostly Cloudy
3:16 PM 68.0 °F 59.0 °F 73% 29.98 in 10.0 mi North 10.4 mph - N/A   Mostly Cloudy
3:20 PM 68.0 °F 59.0 °F 73% 29.98 in 10.0 mi North 8.1 mph - N/A   Scattered Clouds
3:57 PM 66.9 °F 55.9 °F 68% 29.96 in 10.0 mi North 9.2 mph - N/A   Clear
4:57 PM 68.0 °F 54.0 °F 61% 29.95 in 10.0 mi NNE 11.5 mph - N/A   Clear
5:57 PM 66.0 °F 54.0 °F 65% 29.95 in 10.0 mi NNW 4.6 mph - N/A   Clear
6:57 PM 64.0 °F 55.0 °F 73% 29.94 in 10.0 mi NNW 4.6 mph - N/A   Clear
7:57 PM 63.0 °F 55.0 °F 75% 29.96 in 10.0 mi Calm Calm - N/A   Clear
8:57 PM 61.0 °F 55.9 °F 83% 29.97 in 10.0 mi Calm Calm - N/A   Clear
9:57 PM 59.0 °F 57.0 °F 93% 29.98 in 10.0 mi NNW 5.8 mph - N/A   Clear
10:57 PM 59.0 °F 54.0 °F 83% 29.99 in 10.0 mi North 5.8 mph - N/A   Clear
11:57 PM 57.0 °F 52.0 °F 83% 29.98 in 10.0 mi NNW 4.6 mph - N/A   Clear